Karlovy Vary, Czech Republic

8:10 PM CEST on May 26, 2017 (GMT +0200)
Karlovy Vary

Weather History for LKKV - June, 2013

Change the Weather History Date:

Thursday, June 20, 2013

  Actual Average (EDQM) Record (EDQM)
Temperature  
Mean Temperature 74 °F -  
Max Temperature 86 °F 68 °F 89 °F (2013)
Min Temperature 62 °F 51 °F 44 °F (2001)
Cooling Degree Days 9    
Growing Degree Days 24 (Base 50)    
Moisture  
Dew Point 66 °F    
Average Humidity 74    
Maximum Humidity 94    
Minimum Humidity 51    
Precipitation  
Precipitation 0.00 in - - ()
Sea Level Pressure  
Sea Level Pressure 29.94 in    
Wind  
Wind Speed 5 mph ()    
Max Wind Speed 20 mph    
Max Gust Speed 33 mph    
Visibility 6.0 miles    
Events Fog , Rain , Thunderstorm    
Averages and records for this station are not official NWS values.
T = Trace of Precipitation, MM = Missing Value Source: Averaged Metar Reports

Daily Weather History Graph

Daily Weather History Graph

Search for Another Location

Airport or City:

Trip Planner

Search our weather history database for the weather conditions in past years. The results will help you decide how hot, cold, wet, or windy it might be!

Date:

Astronomy

Jun. 20, 2013 Rise Set
Actual Time 4:57 AM CEST 9:22 PM CEST
Civil Twilight 4:12 AM CEST 10:07 PM CEST
Nautical Twilight 3:06 AM CEST 11:13 PM CEST
Astronomical Twilight 1:42 AM CEST 12:37 AM CEST
Moon 5:51 PM CEST (6/20) 2:28 AM CEST (6/20)
Length of Visible Light 17h 54m
Length of Day
16h 24m
Waxing Gibbous, 87% of the Moon is Illuminated
Jun 20
Waxing Gibbous
Jun 23
Full
Jun 30
Last Quarter
Jul 8
New
Jul 16
First Quarter

Hourly Weather History & Observations

Time (CEST) Temp. Heat Index Dew Point Humidity Pressure Visibility Wind Dir Wind Speed Gust Speed Precip Events Conditions
12:00 AM 73.4 °F - 60.8 °F 65% 29.98 in - Variable 2.3 mph - N/A   Clear
1:00 AM 68.0 °F - 60.8 °F 78% 29.98 in - ESE 4.6 mph - N/A   Clear
2:00 AM 68.0 °F - 60.8 °F 78% 29.95 in - ENE 4.6 mph - N/A   Clear
3:00 AM 66.2 °F - 62.6 °F 88% 29.95 in - NE 3.5 mph - N/A   Clear
4:00 AM 66.2 °F - 62.6 °F 88% 29.95 in - NE 3.5 mph - N/A   Clear
5:00 AM 64.4 °F - 62.6 °F 94% 29.98 in 6.2 mi East 3.5 mph - N/A Fog Shallow Fog
6:00 AM 62.6 °F - 60.8 °F 94% 29.95 in - Variable 2.3 mph - N/A   Clear
7:00 AM 71.6 °F - 66.2 °F 83% 29.95 in - Variable 2.3 mph - N/A   Clear
8:00 AM 75.2 °F - 68.0 °F 78% 29.95 in - Variable 2.3 mph - N/A   Clear
8:30 AM 77.0 °F - 68.0 °F 74% 29.98 in - Calm Calm - N/A   Clear
9:00 AM 77.0 °F - 69.8 °F 78% 29.98 in - NE 3.5 mph - N/A   Clear
9:30 AM 78.8 °F - 68.0 °F 69% 29.98 in - SE 4.6 mph - N/A   Clear
10:00 AM 80.6 °F 83.2 °F 68.0 °F 65% 29.95 in - ESE 4.6 mph - N/A   Clear
10:30 AM 80.6 °F 83.2 °F 68.0 °F 65% 29.95 in - East 5.8 mph - N/A   Clear
11:00 AM 82.4 °F 86.3 °F 69.8 °F 66% 29.95 in - NE 5.8 mph - N/A   Clear
11:30 AM 82.4 °F 87.2 °F 71.6 °F 70% 29.95 in 6.2 mi East 6.9 mph - N/A   Partly Cloudy
12:00 PM 84.2 °F 89.6 °F 71.6 °F 66% 29.95 in 6.2 mi East 6.9 mph - N/A   Partly Cloudy
12:30 PM 86.0 °F 88.2 °F 66.2 °F 51% 29.95 in - East 8.1 mph - N/A   Clear
1:00 PM 86.0 °F 89.4 °F 68.0 °F 55% 29.95 in 6.2 mi East 5.8 mph - N/A   Partly Cloudy
1:30 PM 86.0 °F 88.2 °F 66.2 °F 51% 29.95 in 6.2 mi East 8.1 mph - N/A   Partly Cloudy
2:00 PM 86.0 °F 89.4 °F 68.0 °F 55% 29.95 in 6.2 mi East 8.1 mph - N/A   Partly Cloudy
2:30 PM 86.0 °F 89.4 °F 68.0 °F 55% 29.92 in 6.2 mi East 8.1 mph - N/A   Partly Cloudy
3:00 PM 86.0 °F 89.4 °F 68.0 °F 55% 29.92 in 6.2 mi East 9.2 mph - N/A   Partly Cloudy
3:30 PM 84.2 °F 88.4 °F 69.8 °F 62% 29.92 in 6.2 mi ESE 11.5 mph - N/A   Partly Cloudy
4:00 PM 84.2 °F 89.6 °F 71.6 °F 66% 29.89 in 6.2 mi ESE 11.5 mph - N/A   Partly Cloudy
4:30 PM 82.4 °F 86.3 °F 69.8 °F 66% 29.89 in 6.2 mi ESE 11.5 mph - N/A   Scattered Clouds
5:00 PM 82.4 °F 87.2 °F 71.6 °F 70% 29.86 in 6.2 mi East 6.9 mph - N/A Thunderstorm Thunderstorm
5:30 PM 82.4 °F 87.2 °F 71.6 °F 70% 29.89 in 6.2 mi ENE 8.1 mph - N/A Thunderstorm Thunderstorm
5:34 PM 80.6 °F 85.4 °F 73.4 °F 79% 29.86 in 6.2 mi ENE 8.1 mph - N/A Rain , Thunderstorm Light Thunderstorms and Rain
6:00 PM 80.6 °F 84.6 °F 71.6 °F 74% 29.86 in 6.2 mi ENE 9.2 mph - N/A Rain , Thunderstorm Light Thunderstorms and Rain
6:30 PM 77.0 °F - 73.4 °F 89% 29.86 in 6.2 mi SW 5.8 mph - N/A Rain , Thunderstorm Light Thunderstorms and Rain
7:00 PM 69.8 °F - 64.4 °F 83% 29.89 in 6.2 mi WNW 15.0 mph - N/A Rain , Thunderstorm Light Thunderstorms and Rain
7:30 PM 66.2 °F - 60.8 °F 83% 29.95 in 6.2 mi SSW 8.1 mph - N/A Thunderstorm Thunderstorm
8:00 PM 66.2 °F - 57.2 °F 73% 29.92 in 6.2 mi West 10.4 mph 24.2 mph N/A Thunderstorm Scattered Clouds
8:10 PM 66.2 °F - 57.2 °F 73% 29.92 in 6.2 mi WNW 5.8 mph - N/A Rain , Thunderstorm Light Thunderstorms and Rain
8:30 PM 64.4 °F - 57.2 °F 77% 29.89 in 6.2 mi NNW 9.2 mph - N/A Rain , Thunderstorm Light Thunderstorms and Rain
9:00 PM 62.6 °F - 59.0 °F 88% 29.89 in 6.2 mi East 3.5 mph - N/A Rain , Thunderstorm Light Thunderstorms and Rain
10:00 PM 62.6 °F - 60.8 °F 94% 29.89 in 6.2 mi NNW 4.6 mph - N/A   Partly Cloudy
10:38 PM 64.4 °F - 60.8 °F 88% 30.01 in 6.2 mi WSW 15.0 mph - N/A Rain , Thunderstorm Light Thunderstorms and Rain
10:42 PM 62.6 °F - 60.8 °F 94% 30.01 in 3.1 mi WSW 15.0 mph - N/A Rain , Thunderstorm Thunderstorms and Rain
11:00 PM 62.6 °F - 60.8 °F 94% 30.04 in 4.3 mi West 19.6 mph 33.4 mph N/A Rain , Thunderstorm Light Thunderstorms and Rain